Location: Bukit Setapoh
(2.2500°N, 113.8000°E)
Time: 23:09:51
(UTC+00:00)

Cosmos 2082 Rocket - Pass Details

Date: 25 July 2021
Orbit: 831 x 855 km, 71.0° (Epoch: 18 September)

Event Time Altitude Azimuth Distance (km) Brightness Sun altitude
Rises 11:21:06 0° 169° (S) 3,371 5.0 -10.9°
Reaches altitude 10° 11:24:05 10° 154° (SSE) 2,435 4.2 -11.6°
Maximum altitude 11:28:17 22° 105° (ESE) 1,747 3.2 -12.6°
Drops below altitude 10° 11:32:27 10° 56° (NE) 2,431 4.3 -13.6°
Sets 11:35:24 0° 41° (NE) 3,364 5.1 -14.3°
